Weather History for Tehachapi, CA

Change the Weather History Date:

Wednesday, February 8, 2012

  Actual Average Record
Temperature  
Mean Temperature 42 °F -  
Max Temperature 57 °F 53 °F 57 °F (2012)
Min Temperature 28 °F 32 °F 28 °F (2012)
Degree Days  
Heating Degree Days 22    
Moisture  
Dew Point 32 °F    
Average Humidity 67    
Maximum Humidity 93    
Minimum Humidity 33    
Precipitation  
Precipitation 0.00 in - - ()
Sea Level Pressure  
Sea Level Pressure 30.20 in    
Wind  
Wind Speed 6 mph (SE)    
Max Wind Speed 16 mph    
Max Gust Speed -    
Visibility 9 miles    
Events      
Averages and records for this station are not official NWS values.
T = Trace of Precipitation, MM = Missing Value Source: NWS Daily Summary

Daily Weather History Graph

Daily Weather History Graph

Search for Another Location

Airport:

Trip Planner

Search our weather history database for the weather conditions in past years. The results will help you decide how hot, cold, wet, or windy it might be!

Date:

Astronomy

Feb. 08, 2012 Rise Set
Actual Time 6:47 AM PST 5:29 PM PST
Civil Twilight 6:20 AM PST 5:55 PM PST
Nautical Twilight 5:50 AM PST 6:25 PM PST
Astronomical Twilight 5:21 AM PST 6:55 PM PST
Moon 6:48 PM PST (2/8) 6:57 AM PST (2/8)
Length of Visible Light 11h 34m
Length of Day
10h 41m
Full, 99% of the Moon is Illuminated
Feb 8
Full
Feb 14
Last Quarter
Feb 21
New
Feb 29
First Quarter
Mar 8
Full

Hourly Weather History & Observations

Time (PST) Temp. Windchill Dew Point Humidity Pressure Visibility Wind Dir Wind Speed Gust Speed Precip Events Conditions
12:15 AM 41.0 °F 35.8 °F 32.0 °F 70% 30.09 in 10.0 mi SE 8.1 mph - N/A   Clear
12:55 AM 37.4 °F 31.4 °F 32.0 °F 81% 30.10 in 10.0 mi SE 8.1 mph - N/A   Clear
1:35 AM 35.6 °F 29.2 °F 32.0 °F 87% 30.11 in 10.0 mi SE 8.1 mph - N/A   Clear
1:55 AM 35.6 °F 29.2 °F 30.2 °F 81% 30.11 in 10.0 mi SE 8.1 mph - N/A   Clear
2:15 AM 37.4 °F 30.8 °F 32.0 °F 81% 30.11 in 10.0 mi SE 9.2 mph - N/A   Clear
2:35 AM 37.4 °F 31.4 °F 32.0 °F 81% 30.11 in 10.0 mi SE 8.1 mph - N/A   Clear
2:55 AM 35.6 °F - 30.2 °F 81% 30.11 in 10.0 mi Calm Calm - N/A   Clear
3:15 AM 33.8 °F 30.8 °F 28.4 °F 81% 30.11 in 10.0 mi NE 3.5 mph - N/A   Clear
3:35 AM 33.8 °F 29.6 °F 28.4 °F 81% 30.11 in 10.0 mi ESE 4.6 mph - N/A   Clear
3:55 AM 32.0 °F - 28.4 °F 87% 30.11 in 10.0 mi Calm Calm - N/A   Clear
4:35 AM 28.4 °F - 26.6 °F 93% 30.11 in 10.0 mi Calm Calm - N/A   Clear
4:55 AM 28.4 °F - 26.6 °F 93% 30.11 in 10.0 mi Calm Calm - N/A   Clear
5:15 AM 30.2 °F - 26.6 °F 86% 30.11 in 10.0 mi Calm Calm - N/A   Clear
5:35 AM 28.4 °F - 26.6 °F 93% 30.12 in 10.0 mi Calm Calm - N/A   Clear
5:55 AM 28.4 °F - 26.6 °F 93% 30.14 in 10.0 mi Calm Calm - N/A   Clear
6:15 AM 28.4 °F - 26.6 °F 93% 30.14 in 10.0 mi Calm Calm - N/A   Clear
6:35 AM 28.4 °F - 26.6 °F 93% 30.16 in 10.0 mi Calm Calm - N/A   Clear
6:55 AM 26.6 °F - 24.8 °F 93% 30.17 in 8.0 mi Calm Calm - N/A   Clear
7:15 AM 28.4 °F 24.6 °F 26.6 °F 93% 30.19 in 9.0 mi WSW 3.5 mph - N/A   Clear
7:35 AM 33.8 °F 29.6 °F 30.2 °F 87% 30.20 in 9.0 mi West 4.6 mph - N/A   Clear
7:55 AM 37.4 °F 33.8 °F 32.0 °F 81% 30.21 in 9.0 mi North 4.6 mph - N/A   Clear
8:15 AM 39.2 °F 37.0 °F 32.0 °F 75% 30.21 in 10.0 mi NW 3.5 mph - N/A   Clear
8:35 AM 42.8 °F 39.3 °F 32.0 °F 66% 30.22 in 10.0 mi WSW 5.8 mph - N/A   Clear
8:55 AM 44.6 °F 41.4 °F 32.0 °F 61% 30.23 in 9.0 mi SW 5.8 mph - N/A   Clear
9:15 AM 44.6 °F 43.1 °F 32.0 °F 61% 30.22 in 9.0 mi WSW 3.5 mph - N/A   Clear
9:35 AM 46.4 °F - 32.0 °F 57% 30.22 in 10.0 mi Calm Calm - N/A   Clear
9:55 AM 48.2 °F - 32.0 °F 54% 30.22 in 9.0 mi NW 3.5 mph - N/A   Clear
10:15 AM 50.0 °F - 32.0 °F 50% 30.23 in 9.0 mi WNW 4.6 mph - N/A   Clear
10:35 AM 50.0 °F - 32.0 °F 50% 30.23 in 7.0 mi Calm Calm - N/A   Clear
10:55 AM 50.0 °F - 32.0 °F 50% 30.23 in 8.0 mi SSE 3.5 mph - N/A   Clear
11:15 AM 53.6 °F - 32.0 °F 44% 30.21 in 10.0 mi SSE 8.1 mph - N/A   Clear
11:35 AM 53.6 °F - 32.0 °F 44% 30.21 in 8.0 mi ESE 8.1 mph - N/A   Clear
11:55 AM 55.4 °F - 32.0 °F 41% 30.21 in 9.0 mi SE 8.1 mph - N/A   Clear
12:15 PM 55.4 °F - 30.2 °F 38% 30.21 in 9.0 mi South 3.5 mph - N/A   Clear
12:35 PM 53.6 °F - 35.6 °F 51% 30.21 in 7.0 mi NW 11.5 mph - N/A   Clear
12:55 PM 53.6 °F - 37.4 °F 54% 30.21 in 8.0 mi NW 16.1 mph - N/A   Clear
1:55 PM 53.6 °F - 35.6 °F 51% 30.20 in 8.0 mi NW 11.5 mph - N/A   Clear
2:15 PM 55.4 °F - 35.6 °F 47% 30.19 in 9.0 mi NW 8.1 mph - N/A   Clear
2:55 PM 53.6 °F - 35.6 °F 51% 30.19 in 9.0 mi NW 8.1 mph - N/A   Clear
3:15 PM 55.4 °F - 35.6 °F 47% 30.18 in 9.0 mi WNW 4.6 mph - N/A   Clear
3:35 PM 55.4 °F - 37.4 °F 51% 30.18 in 9.0 mi NW 5.8 mph - N/A   Clear
3:55 PM 55.4 °F - 35.6 °F 47% 30.19 in 9.0 mi Calm Calm - N/A   Clear
4:15 PM 55.4 °F - 33.8 °F 44% 30.19 in 10.0 mi SSE 4.6 mph - N/A   Clear
4:55 PM 55.4 °F - 28.4 °F 36% 30.20 in 9.0 mi SE 8.1 mph - N/A   Clear
5:15 PM 53.6 °F - 30.2 °F 41% 30.20 in 9.0 mi Calm Calm - N/A   Clear
5:35 PM 48.2 °F - 28.4 °F 46% 30.21 in 10.0 mi East 5.8 mph - N/A   Clear
5:55 PM 48.2 °F - 28.4 °F 46% 30.22 in 10.0 mi ENE 3.5 mph - N/A   Clear
6:15 PM 44.6 °F 43.1 °F 28.4 °F 53% 30.22 in 10.0 mi ENE 3.5 mph - N/A   Clear
6:35 PM 42.8 °F 37.5 °F 32.0 °F 66% 30.24 in 10.0 mi NW 9.2 mph - N/A   Clear
6:55 PM 42.8 °F 38.6 °F 37.4 °F 81% 30.26 in 9.0 mi West 6.9 mph - N/A   Clear
7:15 PM 44.6 °F 41.4 °F 37.4 °F 76% 30.26 in 8.0 mi West 5.8 mph - N/A   Clear
7:35 PM 42.8 °F 41.1 °F 37.4 °F 81% 30.27 in 8.0 mi West 3.5 mph - N/A   Clear
7:55 PM 39.2 °F 35.9 °F 33.8 °F 81% 30.27 in 8.0 mi ENE 4.6 mph - N/A   Clear
8:15 PM 35.6 °F 29.9 °F 32.0 °F 87% 30.28 in 7.0 mi SE 6.9 mph - N/A   Clear
8:35 PM 35.6 °F 30.7 °F 32.0 °F 87% 30.28 in 7.0 mi East 5.8 mph - N/A   Clear
8:55 PM 35.6 °F 32.8 °F 32.0 °F 87% 30.28 in 8.0 mi ESE 3.5 mph - N/A   Clear
9:15 PM 35.6 °F 29.9 °F 32.0 °F 87% 30.29 in 7.0 mi ESE 6.9 mph - N/A   Clear
9:35 PM 39.2 °F 31.6 °F 33.8 °F 81% 30.28 in 9.0 mi ESE 12.7 mph - N/A   Clear
9:55 PM 37.4 °F 29.8 °F 32.0 °F 81% 30.28 in 10.0 mi ESE 11.5 mph - N/A   Clear
10:35 PM 39.2 °F 33.6 °F 32.0 °F 75% 30.29 in 10.0 mi ESE 8.1 mph - N/A   Clear
10:55 PM 37.4 °F 30.8 °F 30.2 °F 75% 30.29 in 10.0 mi ESE 9.2 mph - N/A   Clear
11:15 PM 41.0 °F 34.7 °F 28.4 °F 61% 30.29 in 10.0 mi ESE 10.4 mph - N/A   Clear
11:35 PM 46.4 °F 42.9 °F 28.4 °F 50% 30.30 in 10.0 mi ESE 6.9 mph - N/A   Clear
11:55 PM 37.4 °F 30.8 °F 28.4 °F 70% 30.29 in 10.0 mi ESE 9.2 mph - N/A   Clear